[ hide orbit diagram ]
For accurate long-term ephemerides, please instead use our Horizons system.This orbit viewer was implemented using two-body methods, and hence should not be used for determining accurate long-term trajectories (over several years or decades) or planetary encounter circumstances.
[ revert to old Java-based viewer ]
Orbital Elements at Epoch 2458600.5 (2019-Apr-27.0) TDB
Reference: JPL 16 (heliocentric ecliptic J2000)
Element | Value | Uncertainty (1-sigma) | Units |
e | .1869112281244777 | 5.5224e-08 | |
a | 2.982742377286697 | 4.5846e-08 | au |
q | 2.425234336369116 | 1.7932e-07 | au |
i | 8.557506282166587 | 8.0744e-06 | deg |
node | 171.5613707134116 | 4.2935e-05 | deg |
peri | 291.3481285085879 | 4.9304e-05 | deg |
M | 335.0652651292023 | 2.5678e-05 | deg |
tp | 2458730.823968914581 (2019-Sep-04.32396891) | 0.0001357 | TDB |
period | 1881.577207552162 5.15 | 4.3381e-05 1.188e-07 | d yr |
n | .1913288482423434 | 4.4112e-09 | deg/d |
Q | 3.540250418204278 | 5.4415e-08 | au |
|
| | Orbit Determination Parameters
Additional Information
|
[ show covariance matrix ]
Physical Parameter Table
Parameter |
Symbol |
Value |
Units |
Sigma |
Reference |
Notes |
absolute magnitude |
H |
16.1 |
|
n/a |
MPO418564 |
|
|
295839 (2008 VB10) Discovered 2008-Nov-02 by Jarnac at Vail-Jarnac |
Reference: 20110912/Numbers.arc | Last Updated: 2011-09-14 |
|
[ show close-approach data ]
|